Starlink 2460

operational
NORAD ID: 48120 Int'l Des: 2021-027 Owner: SPXS Country: US Constellation: starlink
LEOCIRCULARSTARLINK_TYPE

Starlink 2460について

説明を読み込み中...

リアルタイム位置

3D地球を読み込み中...

次回通過

高度履歴

Altitude vs Time

uPlot chart will show altitude changes over time

軌道要素

1 48120U 21027AE 25258.64817189 .00000278 00000-0 37556-4 0 9990
2 48120 53.0529 237.4113 0001359 88.3252 271.7893 15.06395549246048
Epoch: Sep 15, 2025 • Age: 17 hours

現在のステータス

高度 547.5 km
速度 7.59 km/s
衛星直下点 5.17°N, 68.82°W
打ち上げ日 Apr 7, 2021
運用期間 4.4 years
タイプ internet

技術仕様

分類 Payload
質量 260.00 kg
乾燥質量 248.00 kg
総質量 260.00 kg
長さ 0.20 m
直径 2.80 m
スパン 9.00 m
形状 Box + pan
製造者 SPXS
バスタイプ Starlink
フェーズステータス In Orbit
所有者/国 SPXS/US

大規模コンステレーション

Loading constellations...